EN

Hourly Weather Palestina

Today, 3 March, Wednesday

Time Temperature Precipitation Wind Pressure Humidity
00:00 +18°C° 0 mm 1 mps 641 mmHg 90%
01:00 +18°C° 0 mm 1 mps 640 mmHg 90%
02:00 +18°C° 0.1 mm 1 mps 640 mmHg 90%
03:00 +16°C° 0.1 mm 0 mps 640 mmHg 90%
04:00 +16°C° 0.1 mm 0 mps 640 mmHg 90%
05:00 +16°C° 0.1 mm 0 mps 640 mmHg 89%
06:00 +16°C° 0.1 mm 0 mps 641 mmHg 89%
07:00 +16°C° 0.1 mm 0 mps 641 mmHg 88%
08:00 +18°C° 0 mm 0 mps 642 mmHg 82%
09:00 +22°C° 0 mm 1 mps 643 mmHg 76%
10:00 +25°C° 0 mm 1 mps 644 mmHg 69%
11:00 +26°C° 0.3 mm 1 mps 644 mmHg 66%
12:00 +27°C° 0.3 mm 1 mps 643 mmHg 62%
13:00 +28°C° 0.3 mm 1 mps 643 mmHg 58%
14:00 +27°C° 1.1 mm 1 mps 642 mmHg 62%
15:00 +26°C° 1.1 mm 1 mps 642 mmHg 66%
16:00 +26°C° 1.1 mm 1 mps 641 mmHg 70%
17:00 +24°C° 0.9 mm 1 mps 641 mmHg 78%
18:00 +22°C° 0.9 mm 1 mps 641 mmHg 86%
19:00 +20°C° 0.9 mm 1 mps 640 mmHg 94%
20:00 +20°C° 0.9 mm 1 mps 641 mmHg 94%
21:00 +19°C° 0.9 mm 1 mps 641 mmHg 94%
22:00 +19°C° 0.9 mm 1 mps 642 mmHg 94%
23:00 +19°C° 0.6 mm 1 mps 642 mmHg 94%

Tomorrow, 4 March, Thursday

Time Temperature Precipitation Wind Pressure Humidity
00:00 +17°C° 0.6 mm 0 mps 641 mmHg 94%
01:00 +17°C° 0.6 mm 0 mps 641 mmHg 94%
02:00 +17°C° 0.5 mm 0 mps 641 mmHg 94%
03:00 +17°C° 0.5 mm 0 mps 641 mmHg 94%
04:00 +17°C° 0.5 mm 0 mps 641 mmHg 94%
05:00 +17°C° 0.8 mm 0 mps 642 mmHg 95%
06:00 +17°C° 0.8 mm 0 mps 642 mmHg 95%
07:00 +17°C° 0.8 mm 0 mps 642 mmHg 96%
08:00 +18°C° 0.8 mm 0 mps 643 mmHg 95%
09:00 +18°C° 0.8 mm 0 mps 643 mmHg 94%
10:00 +19°C° 0.8 mm 0 mps 644 mmHg 93%
11:00 +19°C° 0.8 mm 0 mps 643 mmHg 92%
12:00 +22°C° 0.8 mm 1 mps 643 mmHg 90%
13:00 +23°C° 0.8 mm 1 mps 642 mmHg 89%
14:00 +22°C° 1.4 mm 1 mps 642 mmHg 91%
15:00 +20°C° 1.4 mm 0 mps 641 mmHg 92%
16:00 +19°C° 1.4 mm 0 mps 641 mmHg 94%
17:00 +19°C° 0.6 mm 0 mps 641 mmHg 94%
18:00 +18°C° 0.6 mm 0 mps 641 mmHg 95%
19:00 +18°C° 0.6 mm 0 mps 641 mmHg 96%
20:00 +17°C° 0.3 mm 0 mps 642 mmHg 96%
21:00 +17°C° 0.3 mm 0 mps 642 mmHg 96%
22:00 +17°C° 0.3 mm 0 mps 642 mmHg 96%
23:00 +17°C° 0.2 mm 0 mps 642 mmHg 96%

Day after tomorrow, 5 March, Friday

Time Temperature Precipitation Wind Pressure Humidity
00:00 +17°C° 0.2 mm 0 mps 642 mmHg 96%
01:00 +17°C° 0.2 mm 0 mps 641 mmHg 96%
02:00 +17°C° 0.2 mm 0 mps 641 mmHg 96%
03:00 +17°C° 0.2 mm 0 mps 641 mmHg 97%
04:00 +16°C° 0.2 mm 0 mps 641 mmHg 97%
05:00 +17°C° 0.1 mm 0 mps 641 mmHg 96%
06:00 +17°C° 0.1 mm 0 mps 641 mmHg 96%
07:00 +17°C° 0.1 mm 0 mps 641 mmHg 95%
08:00 +19°C° 0.1 mm 0 mps 642 mmHg 89%
09:00 +21°C° 0.1 mm 0 mps 643 mmHg 82%
10:00 +24°C° 0.1 mm 1 mps 644 mmHg 76%
11:00 +25°C° 0.6 mm 1 mps 643 mmHg 73%
12:00 +26°C° 0.6 mm 1 mps 643 mmHg 71%
13:00 +27°C° 0.6 mm 1 mps 642 mmHg 68%
14:00 +26°C° 1.3 mm 1 mps 641 mmHg 73%
15:00 +25°C° 1.3 mm 1 mps 641 mmHg 78%
16:00 +23°C° 1.3 mm 0 mps 640 mmHg 83%
17:00 +21°C° 1.6 mm 0 mps 640 mmHg 87%
18:00 +20°C° 1.6 mm 0 mps 640 mmHg 92%
19:00 +18°C° 1.6 mm 0 mps 640 mmHg 96%
20:00 +18°C° 0.9 mm 0 mps 641 mmHg 96%
21:00 +18°C° 0.9 mm 0 mps 641 mmHg 95%
22:00 +17°C° 0.9 mm 0 mps 641 mmHg 95%
23:00 +17°C° 0.9 mm 0 mps 641 mmHg 95%

6 March, Saturday

Time Temperature Precipitation Wind Pressure Humidity
00:00 +17°C° 0.9 mm 0 mps 641 mmHg 96%
01:00 +17°C° 0.9 mm 0 mps 640 mmHg 96%
02:00 +17°C° 0.8 mm 0 mps 640 mmHg 96%
03:00 +17°C° 0.8 mm 0 mps 640 mmHg 95%
04:00 +17°C° 0.8 mm 0 mps 640 mmHg 95%
05:00 +17°C° 0.7 mm 0 mps 640 mmHg 95%
06:00 +17°C° 0.7 mm 0 mps 641 mmHg 95%
07:00 +17°C° 0.7 mm 0 mps 641 mmHg 95%
08:00 +19°C° 0.2 mm 0 mps 642 mmHg 90%
09:00 +22°C° 0.2 mm 1 mps 643 mmHg 85%
10:00 +24°C° 0.2 mm 1 mps 643 mmHg 81%
11:00 +25°C° 0.7 mm 1 mps 643 mmHg 77%
12:00 +26°C° 0.7 mm 1 mps 642 mmHg 74%
13:00 +25°C° 0.7 mm 0 mps 642 mmHg 71%
14:00 +24°C° 0.9 mm 0 mps 641 mmHg 72%
15:00 +24°C° 0.9 mm 0 mps 641 mmHg 74%
16:00 +23°C° 0.9 mm 0 mps 640 mmHg 76%
17:00 +22°C° 1.4 mm 0 mps 640 mmHg 82%
18:00 +22°C° 1.4 mm 1 mps 640 mmHg 88%
19:00 +21°C° 1.4 mm 1 mps 640 mmHg 95%
20:00 +20°C° 0.8 mm 1 mps 640 mmHg 95%
21:00 +20°C° 0.8 mm 1 mps 641 mmHg 95%
22:00 +19°C° 0.8 mm 1 mps 641 mmHg 94%
23:00 +19°C° 0.3 mm 1 mps 641 mmHg 94%

7 March, Sunday

Time Temperature Precipitation Wind Pressure Humidity
00:00 +19°C° 0.3 mm 1 mps 641 mmHg 94%
01:00 +18°C° 0.3 mm 1 mps 640 mmHg 94%
02:00 +18°C° 0.3 mm 1 mps 640 mmHg 94%
03:00 +18°C° 0.3 mm 1 mps 640 mmHg 94%
04:00 +18°C° 0.3 mm 1 mps 640 mmHg 94%
05:00 +16°C° 0 mm 0 mps 640 mmHg 93%
06:00 +17°C° 0 mm 0 mps 641 mmHg 93%
07:00 +17°C° 0 mm 0 mps 641 mmHg 92%
08:00 +19°C° 0.1 mm 0 mps 642 mmHg 85%
09:00 +23°C° 0.1 mm 1 mps 643 mmHg 78%
10:00 +25°C° 0.1 mm 1 mps 644 mmHg 71%
11:00 +26°C° 0.6 mm 1 mps 643 mmHg 69%
12:00 +27°C° 0.6 mm 1 mps 643 mmHg 68%
13:00 +28°C° 0.6 mm 1 mps 642 mmHg 66%
14:00 +27°C° 0.9 mm 1 mps 641 mmHg 71%
15:00 +24°C° 0.9 mm 0 mps 641 mmHg 75%
16:00 +23°C° 0.9 mm 0 mps 640 mmHg 80%
17:00 +24°C° 1.7 mm 1 mps 640 mmHg 85%
18:00 +22°C° 1.7 mm 1 mps 640 mmHg 90%
19:00 +21°C° 1.7 mm 1 mps 640 mmHg 95%
20:00 +20°C° 1.7 mm 1 mps 641 mmHg 95%
21:00 +20°C° 1.7 mm 1 mps 641 mmHg 95%
22:00 +20°C° 1.7 mm 1 mps 641 mmHg 95%
23:00 +20°C° 0.9 mm 1 mps 641 mmHg 95%

8 March, Monday

Time Temperature Precipitation Wind Pressure Humidity
00:00 +19°C° 0.9 mm 1 mps 641 mmHg 95%
01:00 +17°C° 0.9 mm 0 mps 641 mmHg 95%
02:00 +17°C° 0.5 mm 0 mps 641 mmHg 95%
03:00 +17°C° 0.5 mm 0 mps 640 mmHg 95%
04:00 +17°C° 0.5 mm 0 mps 640 mmHg 95%
05:00 +17°C° 0.3 mm 0 mps 641 mmHg 94%
06:00 +17°C° 0.3 mm 0 mps 641 mmHg 94%
07:00 +17°C° 0.3 mm 0 mps 642 mmHg 93%
08:00 +21°C° 0.1 mm 1 mps 643 mmHg 89%
09:00 +23°C° 0.1 mm 1 mps 643 mmHg 84%
10:00 +24°C° 0.1 mm 1 mps 644 mmHg 80%
11:00 +25°C° 0.7 mm 1 mps 643 mmHg 80%
12:00 +25°C° 0.7 mm 1 mps 643 mmHg 80%
13:00 +25°C° 0.7 mm 1 mps 642 mmHg 80%
14:00 +24°C° 2.2 mm 1 mps 641 mmHg 84%
15:00 +24°C° 2.2 mm 1 mps 641 mmHg 89%
16:00 +23°C° 2.2 mm 1 mps 640 mmHg 94%
17:00 +22°C° 1.8 mm 1 mps 640 mmHg 95%
18:00 +19°C° 1.8 mm 0 mps 640 mmHg 96%
19:00 +18°C° 1.8 mm 0 mps 641 mmHg 98%
20:00 +18°C° 2.6 mm 0 mps 641 mmHg 98%
21:00 +18°C° 2.6 mm 0 mps 641 mmHg 99%
22:00 +17°C° 2.6 mm 0 mps 642 mmHg 99%
23:00 +17°C° 3.7 mm 0 mps 642 mmHg 99%
Show more

We Need Your Consent

Meteoprog and our Service Providers may store and access personal data such as cookies, device identifiers or other similar technologies on your device and process such data to personalise content and ads, as well as provide social media features and to analyse the traffic.

  • Store and/or access information on your device

    Cookies, device identifiers or other information can be stored or accessed on your device for the purposes indicated above.

  • Personalised ads and content, ad and content measurement, audience insights, and products development

    Ads and content can be personalised based on a profile. More data can be added to better personalise ads and content. Ad and content performance can be measured. Insights about the audience who saw the ads and content can be derived. Such data can be used to develop or improve user’s experience, systems and software.

By clicking ‘I Agree’ you will allow the use of indicated cookies, device identifiers, web beacons or other similar technologies. Your settings can be changed in the browser on your device.

For certain purposes, legitimate interests may be relied on, rather than consent. You can read more about this in our Privacy and Cookie Policy.